Location: Unspecified
(39.0670°S, 0.0000°E)
Time: 20:53:17
(UTC+00:00)

Envisat - Pass Details

Date: 04 July 2019
Orbit: 764 x 766 km, 98.1° (Epoch: 16 July)

Event Time Altitude Azimuth Distance (km) Brightness Sun altitude
Rises 05:06:46 0° 56° (NE) 3,233 7.3 -25.0°
Reaches altitude 10° 05:09:42 10° 73° (ENE) 2,316 6.5 -24.5°
Maximum altitude 05:13:07 19° 116° (ESE) 1,808 5.5 -23.8°
Drops below altitude 10° 05:16:35 10° 158° (SSE) 2,336 5.6 -23.2°
Sets 05:19:33 0° 176° (S) 3,271 6.2 -22.6°
